Moses Lake, WA

12:55 AM PST on January 17, 2017 (GMT -0800)
Grant County International

Weather History for KMWH - May, 2014

Change the Weather History Date:

Saturday, May 10, 2014

  Actual Average Record
Temperature  
Mean Temperature 54 °F 57 °F  
Max Temperature 67 °F 72 °F 94 °F (2013)
Min Temperature 41 °F 43 °F 30 °F (2002)
Degree Days  
Heating Degree Days 11 8  
Month to date heating degree days 59 95  
Since 1 July heating degree days 5571 5712  
Cooling Degree Days 0 0  
Month to date cooling degree days 3 0  
Year to date cooling degree days 3 1  
Growing Degree Days 4 (Base 50)    
Moisture  
Dew Point 33 °F    
Average Humidity 50    
Maximum Humidity 76    
Minimum Humidity 24    
Precipitation  
Precipitation 0.00 in 0.03 in 0.14 in (1980)
Month to date precipitation 0.15 0.20  
Year to date precipitation 2.78 3.62  
Sea Level Pressure  
Sea Level Pressure 30.00 in    
Wind  
Wind Speed 7 mph (WSW)    
Max Wind Speed 14 mph    
Max Gust Speed 19 mph    
Visibility 10 miles    
Events      
T = Trace of Precipitation, MM = Missing Value Source: NWS Daily Summary

Daily Weather History Graph

Daily Weather History Graph

Search for Another Location

Airport or City:

Trip Planner

Search our weather history database for the weather conditions in past years. The results will help you decide how hot, cold, wet, or windy it might be!

Date:

Astronomy

May. 10, 2014 Rise Set
Actual Time 5:27 AM PDT 8:20 PM PDT
Civil Twilight 4:52 AM PDT 8:56 PM PDT
Nautical Twilight 4:06 AM PDT 9:41 PM PDT
Astronomical Twilight 3:12 AM PDT 10:36 PM PDT
Moon 4:05 PM PDT (5/10) 3:21 AM PDT (5/10)
Length of Visible Light 16h 03m
Length of Day
14h 52m
Waxing Gibbous, 83% of the Moon is Illuminated
May 10
Waxing Gibbous
May 14
Full
May 21
Last Quarter
May 28
New
Jun 5
First Quarter

Hourly Weather History & Observations

Time (PDT) Temp. Windchill Dew Point Humidity Pressure Visibility Wind Dir Wind Speed Gust Speed Precip Events Conditions
12:52 AM 46.9 °F - 36.0 °F 66% 29.89 in 10.0 mi SSW 9.2 mph - N/A   Clear
1:52 AM 46.9 °F - 35.1 °F 63% 29.89 in 10.0 mi SSW 9.2 mph - N/A   Clear
2:52 AM 46.0 °F 43.1 °F 33.1 °F 61% 29.89 in 10.0 mi WSW 5.8 mph - N/A   Clear
3:52 AM 44.6 °F 41.4 °F 33.8 °F 66% 29.90 in 10.0 mi SW 5.8 mph - N/A   Clear
4:52 AM 44.1 °F 40.8 °F 34.0 °F 68% 29.93 in 10.0 mi SSW 5.8 mph - N/A   Clear
5:52 AM 42.1 °F 40.2 °F 34.0 °F 73% 29.94 in 10.0 mi SE 3.5 mph - N/A   Partly Cloudy
6:52 AM 44.1 °F 42.5 °F 37.0 °F 76% 29.97 in 10.0 mi ESE 3.5 mph - N/A   Clear
7:52 AM 48.0 °F - 36.0 °F 63% 29.98 in 10.0 mi Calm Calm - N/A   Overcast
8:52 AM 52.0 °F - 33.1 °F 49% 29.99 in 10.0 mi NNE 4.6 mph - N/A   Partly Cloudy
9:52 AM 55.9 °F - 33.1 °F 42% 30.00 in 10.0 mi Variable 5.8 mph - N/A   Scattered Clouds
10:52 AM 57.9 °F - 34.0 °F 41% 30.01 in 10.0 mi North 6.9 mph - N/A   Scattered Clouds
11:52 AM 63.0 °F - 35.1 °F 35% 30.01 in 10.0 mi North 9.2 mph - N/A   Clear
12:52 PM 64.0 °F - 34.0 °F 33% 30.01 in 10.0 mi Variable 4.6 mph 16.1 mph N/A   Partly Cloudy
1:52 PM 64.9 °F - 34.0 °F 32% 30.01 in 10.0 mi ENE 5.8 mph - N/A   Mostly Cloudy
2:52 PM 64.9 °F - 32.0 °F 29% 30.02 in 10.0 mi SW 5.8 mph - N/A   Mostly Cloudy
3:52 PM 64.9 °F - 28.9 °F 26% 30.02 in 10.0 mi WSW 10.4 mph 19.6 mph N/A   Overcast
4:52 PM 66.9 °F - 28.9 °F 24% 30.02 in 10.0 mi SSW 5.8 mph - N/A   Partly Cloudy
5:52 PM 66.9 °F - 30.0 °F 25% 30.03 in 10.0 mi SSW 9.2 mph - N/A   Mostly Cloudy
6:52 PM 64.0 °F - 28.9 °F 27% 30.04 in 10.0 mi SSW 6.9 mph - N/A   Clear
7:52 PM 62.6 °F - 35.6 °F 37% 30.05 in 10.0 mi WSW 9.2 mph - N/A   Scattered Clouds
8:52 PM 60.1 °F - 33.1 °F 36% 30.08 in 10.0 mi WNW 10.4 mph - N/A   Mostly Cloudy
9:52 PM 59.0 °F - 34.0 °F 39% 30.09 in 10.0 mi NW 9.2 mph - N/A   Overcast
10:52 PM 57.2 °F - 33.8 °F 41% 30.10 in 10.0 mi WNW 9.2 mph - N/A   Mostly Cloudy
11:52 PM 53.1 °F - 33.1 °F 47% 30.12 in 10.0 mi NW 10.4 mph - N/A   Partly Cloudy